Location: *
(33.8649°S, 62.1526°E)
Time: 12:28:50
(UTC+00:00)

Cosmos 44 Rocket - Pass Details

Date: 17 January 2021
Orbit: 637 x 753 km, 65.1° (Epoch: 02 March)

Event Time Altitude Azimuth Distance (km) Brightness Sun altitude
Rises 15:26:49 0° 217° (SW) 2,968 8.0 -4.9°
Reaches altitude 10° 15:29:13 10° 224° (SW) 2,049 7.2 -5.4°
Maximum altitude 15:33:34 41° 293° (WNW) 939 4.4 -6.2°
Drops below altitude 10° 15:37:53 10° 3° (N) 2,041 5.4 -6.9°
Sets 15:40:16 0° 10° (N) 2,955 6.2 -7.4°
